Regional Weather Roundup
Issued by NWS Burlington, VT

Home | Current Version | Previous Version | Text Only | Print | Product List | Glossary On
Versions: 1 2 3 4 5 6 7 8 9 10 11 12 13 14 15 16 17 18 19 20 21 22 23 24 25 26 27 28 29 30 31 32 33 34 35 36 37 38 39 40 41 42 43 44 45 46 47 48 49 50
000
ASUS41 KBTV 041110
RWRBTV
VERMONT REGIONAL WEATHER ROUNDUP
NATIONAL WEATHER SERVICE BURLINGTON VT
600 AM EST WED MAR 04 2015

NOTE: "FAIR" INDICATES FEW OR NO CLOUDS BELOW 12,000 FEET WITH NO
SIGNIFICANT WEATHER AND/OR OBSTRUCTIONS TO VISIBILITY.

* THESE REPORTS ARE NOT UNDER NWS QUALITY CONTROL AND/OR DO NOT
  REPORT WEATHER SUCH AS PRECIPITATION AND FOG.

VTZ001>019-041200-
_____VERMONT_____


CITY           SKY/WX    TMP DP  RH WIND       PRES   REMARKS
BURLINGTON     CLOUDY    32  26  78 W3        29.65R
MONTPELIER     CLOUDY    31  25  78 VRB3      29.63R
MORRISVILLE    CLOUDY    34  25  69 CALM      29.62R
ST. JOHNSBURY*   N/A     27  24  89 MISG      29.59R
LYNDONVILLE*   MIX PCPN  26  23  89 E6        29.59R
MIDDLEBURY*    CLOUDY    33  29  85 S9        29.64R
RUTLAND*       CLOUDY    34  28  80 W10       29.66R
SPRINGFIELD    CLOUDY    34  28  79 W14       29.66R
HIGHGATE*      CLOUDY    32  25  77 W7        29.65R
NEWPORT*       CLOUDY    30  25  83 W13G20    29.59R WCI  20
BENNINGTON     CLOUDY    36  30  79 VRB7      29.71R
SUTTON*          N/A     21 N/A N/A MISG        N/A

_____LAKE CHAMPLAIN_____


CITY           SKY/WX    TMP DP  RH WIND       PRES   REMARKS

$$

NYZ007-026>031-035-052-083-041200-
_____NORTHERN NEW YORK_____


CITY           SKY/WX    TMP DP  RH WIND       PRES   REMARKS
PLATTSBURGH    CLOUDY    34  26  72 VRB5      29.65R
SARANAC LAKE   CLOUDY    27  24  89 W10G20    29.61R WCI  17
MASSENA        CLOUDY    31  26  82 SW13G21   29.69R
OGDENSBURG*    PTSUNNY   32  27  80 W9        29.69R
POTSDAM*       CLOUDY    30  28  93 W10G16    29.68R
WATERTOWN      CLOUDY    33  25  72 SW8       29.74R
FT DRUM        CLOUDY    30  26  85 W7        29.70R
ALBANY         CLOUDY    33  28  81 E3        29.75R
GLENS FALLS    CLOUDY    31  27  85 S8        29.71R

$$
NHZ002-005-011-041200-
_____NEW HAMPSHIRE_____


CITY           SKY/WX    TMP DP  RH WIND       PRES   REMARKS
LEBANON        FLURRIES  28  24  85 VRB3      29.62R
KEENE          CLOUDY    34  30  86 SW7       29.66R
MT WASHINGTON  BLWGSNOW  12  12 100 W77         N/A  VSB 0   WCI -18
PLYMOUTH       CLOUDY    24  24 100 CALM      29.61R
WHITEFIELD     CLOUDY    30  25  81 VRB3      29.59R

$$

_____REGIONAL QUEBEC LOCATIONS_____


CITY           SKY/WX    TMP DP  RH WIND       PRES   REMARKS
SHERBROOKE     LGT SNOW  28  25  86 W21G26    29.58R WCI  15

_____REGIONAL ONTARIO LOCATIONS_____


CITY           SKY/WX    TMP DP  RH WIND       PRES   REMARKS

______KEY______
VSB  - VISIBILITY IN MILES
WCI  - WIND CHILL INDEX
HX   - HEAT INDEX
$$
NNNN


USA.gov is the U.S. government's official web portal to all federal, state and local government web resources and services.